FW5697 Weather Reports


time (UTC)temp
F
wind
direction
speed
knots
gust
knots
rain 1hr
in
rain 24hr
in
rain mn
in
humidity
%
barometer
mb
20260508093036 55 0 0.0 0.0 0.00 3.11 0.00 93 1014.5
20260508091530 55 0 0.0 0.0 0.00 3.11 0.00 93 1014.6
20260508090036 56 0 0.0 0.0 0.00 3.11 0.00 93 1014.3
20260508084528 56 0 0.0 0.0 0.00 3.12 0.00 93 1014.4
20260508083030 56 0 0.0 0.0 0.00 3.12 0.00 93 1014.4
20260508081528 56 0 0.0 0.0 0.00 3.12 0.00 93 1014.2
20260508080029 56 0 0.0 0.0 0.00 3.12 0.00 92 1013.9
20260508074534 57 0 0.0 0.0 0.00 3.17 0.00 93 1014.0
20260508073030 57 0 0.0 0.0 0.00 3.17 0.00 92 1014.0
20260508071533 57 0 0.0 0.0 0.00 3.17 0.00 92 1014.4
20260508070030 57 0 0.0 0.0 0.00 3.17 0.00 92 1014.5
20260508064535 58 0 0.0 0.0 0.00 3.26 0.00 92 1014.6
20260508063030 58 0 0.0 0.0 0.00 3.26 0.00 93 1014.4
20260508061528 58 0 0.0 0.0 0.00 3.26 0.00 94 1014.5
20260508060033 58 0 0.0 0.0 0.00 3.26 0.00 93 1014.5
20260508054605 58 0 0.0 0.0 0.00 3.42 0.00 92 1014.8
20260508053043 59 0 0.0 0.0 0.00 3.42 0.00 92 1014.9
20260508051527 59 0 0.0 0.0 0.00 3.42 0.00 91 1014.7
20260508050030 59 0 0.0 0.0 0.00 3.42 0.00 90 1015.0
20260508044529 59 0 0.0 0.0 0.00 3.45 0.00 90 1014.8
20260508043035 60 0 0.0 0.0 0.00 3.45 0.00 89 1014.6
20260508041529 60 0 0.0 0.0 0.00 3.45 0.00 88 1014.6
20260508040032 61 0 0.0 0.0 0.00 3.45 0.00 87 1014.7
20260508034535 61 0 0.0 0.9 0.00 3.48 3.45 86 1014.6
20260508033033 61 0 0.0 0.0 0.00 3.48 3.45 86 1014.6
20260508031533 62 0 0.0 0.0 0.00 3.48 3.45 86 1014.4
20260508030030 62 0 0.0 0.0 0.00 3.48 3.45 84 1014.4
20260508024527 63 0 0.0 0.0 0.00 3.60 3.45 83 1014.0
20260508023027 63 0 0.0 0.0 0.00 3.60 3.45 82 1014.1
20260508021528 64 0 0.0 0.0 0.00 3.60 3.45 80 1014.2
20260508020031 65 0 0.0 0.9 0.00 3.60 3.45 79 1013.9
20260508014535 65 213 0.0 1.7 0.00 3.60 3.45 78 1013.7
20260508013028 65 0 0.0 4.3 0.00 3.60 3.45 79 1013.6
20260508011526 65 0 0.0 0.0 0.00 3.60 3.45 83 1013.5
20260508010044 66 0 0.0 0.9 0.00 3.60 3.45 82 1013.3
20260508004532 66 64 0.0 2.6 0.00 3.60 3.45 83 1013.1
20260508003027 67 0 0.0 2.6 0.00 3.60 3.45 82 1013.0
20260508001526 68 355 0.9 3.5 0.00 3.60 3.45 80 1012.8
20260508000027 69 143 0.9 4.3 0.00 3.60 3.45 80 1012.6
20260507234528 70 0 0.0 4.3 0.00 3.60 3.45 78 1012.5
20260507233030 71 355 0.9 4.3 0.00 3.60 3.45 77 1012.3
20260507231528 72 292 0.9 2.6 0.00 3.60 3.45 76 1012.1
20260507230038 73 34 0.9 5.2 0.00 3.60 3.45 74 1012.1
20260507224530 74 0 0.9 7.0 0.00 3.60 3.45 74 1011.8
20260507223032 72 207 0.9 6.1 0.00 3.60 3.45 76 1011.8
20260507221529 74 159 1.7 7.0 0.00 3.60 3.45 73 1011.6
20260507220029 74 168 0.9 5.2 0.00 3.60 3.45 74 1011.4
20260507214530 74 163 0.9 5.2 0.00 3.60 3.45 74 1011.6
20260507213030 74 112 3.5 9.6 0.00 3.60 3.45 73 1011.7
20260507211537 74 0 0.9 7.8 0.00 3.60 3.45 75 1011.5
20260507210027 74 309 3.5 8.7 0.00 3.60 3.45 74 1011.5
20260507204531 73 68 2.6 6.1 0.00 3.60 3.45 77 1011.3
20260507203033 73 101 1.7 7.0 0.00 3.60 3.45 78 1011.3
20260507201527 72 191 3.5 7.8 0.00 3.60 3.45 78 1011.3
20260507200028 73 109 2.6 13.9 0.00 3.60 3.45 77 1011.5
20260507194531 74 0 1.7 9.6 0.00 3.60 3.45 76 1011.6
20260507193033 74 248 3.5 10.4 0.00 3.60 3.45 76 1011.5
20260507191530 74 0 0.9 7.0 0.00 3.60 3.45 78 1011.2
20260507190028 74 172 1.7 6.1 0.00 3.60 3.45 78 1011.5
20260507184528 74 33 1.7 7.0 0.00 3.60 3.45 78 1011.5
20260507183041 74 194 1.7 7.8 0.00 3.60 3.45 78 1011.4
20260507181530 74 109 3.5 7.8 0.00 3.60 3.45 78 1011.5
20260507180032 72 272 1.7 6.1 0.00 3.60 3.45 82 1011.5
20260507174530 72 201 1.7 5.2 0.00 3.60 3.45 83 1011.7
20260507173030 71 185 1.7 6.1 0.00 3.60 3.45 87 1011.6
20260507171529 70 180 0.9 7.8 0.00 3.60 3.45 89 1011.9
20260507170028 69 0 0.9 3.5 0.00 3.60 3.45 93 1012.1
20260507164531 68 196 2.6 6.1 0.00 3.60 3.45 93 1011.9
20260507163027 67 198 0.9 5.2 0.12 3.60 3.45 96 1011.9
20260507161539 67 207 0.0 4.3 0.22 3.60 3.45 98 1012.0
20260507160040 67 180 0.0 2.6 0.24 3.60 3.45 98 1011.8
20260507154531 66 207 0.9 1.7 0.26 3.60 3.45 97 1011.7
20260507153031 66 0 0.0 2.6 0.13 3.46 3.31 97 1011.4
20260507151528 66 284 0.9 3.5 0.05 3.37 3.22 97 1011.6
20260507150030 66 29 0.0 1.7 0.04 3.36 3.21 97 1011.4
20260507144534 66 34 0.0 4.3 0.03 3.34 3.19 97 1011.6
20260507143029 66 9 1.7 4.3 0.04 3.33 3.18 97 1011.5
20260507141527 66 38 0.9 5.2 0.22 3.32 3.17 97 1011.4
20260507140029 67 43 1.7 8.7 0.55 3.32 3.17 97 1010.7
20260507134528 68 157 0.0 2.6 0.76 3.31 3.16 98 1010.8
20260507133028 68 188 0.9 4.3 1.05 3.29 3.14 98 1010.7
20260507131532 67 182 0.9 7.8 1.26 3.09 2.94 98 1010.7
20260507130028 67 220 2.6 7.8 1.16 2.74 2.59 98 1010.3
20260507124545 67 207 1.7 3.5 1.37 2.53 2.38 97 1009.7
20260507123030 67 183 2.6 7.0 1.51 2.20 2.05 97 1009.8
20260507121528 67 190 0.9 2.6 1.15 1.82 1.67 97 1010.0
20260507120028 67 207 1.7 5.2 0.88 1.55 1.40 97 1009.9
20260507114529 67 218 0.9 5.2 0.46 1.13 0.98 97 1009.8
20260507113027 66 202 1.7 4.3 0.01 0.68 0.52 97 1009.4
20260507111528 66 221 1.7 5.2 0.00 0.67 0.52 97 1009.3
20260507110031 66 178 0.9 3.5 0.01 0.67 0.52 97 1009.4
20260507104528 66 243 0.9 3.5 0.04 0.67 0.52 97 1009.8
20260507103030 66 194 0.0 4.3 0.07 0.67 0.52 97 1009.8
20260507101530 66 225 0.0 3.5 0.15 0.67 0.52 97 1009.4
20260507100027 66 0 0.9 7.0 0.17 0.66 0.51 97 1009.3
20260507094526 66 164 1.7 5.2 0.14 0.63 0.48 97 1008.9